Location: Unspecified
(0.0000°N, 0.0000°E)
Time: 17:09:12
(UTC+00:00)

deb Ablestar - Visible Passes

Search period start: 14 January 2026 00:00
Search period end: 24 January 2026 00:00
Orbit: 915 x 2095 km, 65.7° (Epoch: 10 January)

Date Brightness Start Highest point End Pass type
(mag) Time Alt. Az. Time Alt. Az. Time Alt. Az.
14 Jan ? 04:35:59 10° SSW 04:41:49 67° WNW 04:48:24 10° NNE visible
15 Jan ? 03:48:22 10° S 03:54:06 55° ESE 04:00:28 10° NNE visible
16 Jan ? 03:01:49 10° SSE 03:06:27 24° ESE 03:11:24 10° ENE visible
16 Jan ? 05:00:59 10° WSW 05:05:39 23° WNW 05:10:48 10° NNW visible
17 Jan ? 04:21:26 24° N 04:21:26 24° N 04:24:12 10° N visible
18 Jan?03:37:15NNE03:37:15NNE03:21:59SSWvisible
